Etusivu
METAR-TAF:

METAR-TAF

Lentoasemat :

Bigfork Municipal Airport

Bigfork, Minnesota, Yhdysvallat

Leveyspiiri: 47-46-58N, Pituuspiiri: 093-39-01W, korkeus merenpinnasta: 411 m

Tämänhetkinen sää

Tämä raportti tehtiin 24 minuuttia sitten, kello 16.14 UTC
Tuuli 3 kn lännestä/luoteesta
Lämpötila 3°C
Kosteus 93%
Ilmanpaine 1021 hPa
Näkyvyys: 11.3 km
Pilvistä 500 ft:n korkeudessa

METAR: KFOZ 161614Z AUTO 29003KT 7SM OVC005 03/02 A3015 RMK AO2

Aika: 11:38 (16:38 UTC)


TAF: puuttuu

Säähavainnot ja -ennusteet yli 4000 lentoasemalta (METAR- ja TAF-raportit).

Käytössä olevat sääasemat on merkitty karttaan keltaisilla ja punaisilla pisteillä.

Aseta hiiri pisteen päälle nähdäksesi sääaseman nimen.

Klikkaa sitten nähdäksesi säähavainnot ja -ennusteet.

Kartan vaihtaminen: klikkaa mustalla rastilla varustettuja vihreitä pisteitä, niin voit zoomata sisään; viivalla varustettua vihreää pistettä, niin voit zoomata ulos tai vihreitä nuolia, niin pääset viereisille kartoille.


METAR-TAF: